Home   Weather   Pali   Past weeks

Flag for India Past Weather in Pali, Rajasthan, India — Yesterday and Last 2 Weeks

Now
66 °F

Haze.


Feels Like: 66 °F
Forecast: 59 / 87 °F
Wind: No wind

Location: Jaipur / Sanganer

Current Time: Jan 23, 2017 at 8:26:09 pm

Latest Report: Jan 23, 2017 at 7:30 pm


Visibility: 2 mi

Pressure: 30.09 "Hg

Humidity: 60%

Dew Point: 52 °F

Location of PaliLocation

Past Weather in Pali — Graph

°F

Pali Temperature Yesterday

Maximum temperature yesterday: 75 °F (at 3:00 pm)
Minimum temperature yesterday: 57 °F (at 12:00 am)
Average temperature yesterday: 64 °F

High & Low Weather Summary for the Past Weeks

 TemperatureHumidityPressure
High77 °F (Jan 23, 2:30 pm)100% (Jan 9, 7:00 am)30.30 "Hg (Jan 9, 7:00 am)
Low39 °F (Jan 12, 5:30 am)15% (Jan 13, 5:00 pm)29.86 "Hg (Jan 19, 6:00 am)
Average58 °F48%30.10 "Hg
* Reported Jan 8 6:30 pm — Jan 23 7:00 pm, Pali, Weather by CustomWeather, © 2017

Note: Actual official high and low records may vary slightly from our data, if they occured in-between our weather recording intervals... More about our weather records

Advertising

Pali Weather History for the Previous 24 Hours

Scroll right to see more
 ConditionsComfort  
Time TempWeatherWind HumidityBarometerVisibility
7:00 pm
Mon, Jan 23
68 °FHaze.No wind53%30.07 "Hg2 mi
6:30 pm72 °FHaze.No wind47%30.07 "Hg2 mi
6:00 pm72 °FHaze.3 mph47%30.07 "Hg2 mi
5:30 pm75 °FHaze.5 mph41%30.07 "Hg2 mi
5:00 pm77 °FHaze.7 mph36%30.07 "Hg2 mi
4:30 pm77 °FHaze.6 mph36%30.07 "Hg2 mi
3:30 pm77 °FHaze.6 mph36%30.09 "Hg2 mi
3:00 pm77 °FHaze.6 mph36%30.09 "Hg2 mi
2:30 pm77 °FHaze.5 mph36%30.09 "Hg2 mi
2:00 pm75 °FHaze.5 mph39%30.12 "Hg2 mi
1:30 pm75 °FHaze.5 mph39%30.15 "Hg2 mi
12:30 pm75 °FHaze.5 mph36%30.18 "Hg2 mi
11:30 am72 °FHaze.6 mph41%30.21 "Hg2 mi
10:30 am70 °FHaze.7 mph43%30.21 "Hg2 mi
9:00 am63 °FClear.5 mph59%30.21 "Hg1 mi
8:30 am57 °FClear.5 mph77%30.21 "Hg1 mi
8:00 am55 °FHaze.5 mph77%30.18 "Hg1 mi
7:30 am54 °FHaze.No wind77%30.18 "Hg1 mi
7:00 am52 °FHaze.2 mph77%30.15 "Hg1 mi
6:30 am57 °FHaze.No wind72%30.15 "Hg1 mi
6:00 am55 °FHaze.No wind72%30.15 "Hg1 mi
5:30 am54 °FHaze.No wind77%30.12 "Hg1 mi
5:00 am55 °FHaze.No wind72%30.12 "Hg1 mi
4:30 am54 °FHaze.No wind77%30.12 "Hg1 mi
3:30 am55 °FHaze.No wind72%30.12 "Hg2 mi
2:30 am57 °FHaze.No wind67%30.15 "Hg2 mi
2:00 am57 °FHaze.No wind63%30.15 "Hg2 mi
1:30 am59 °FHaze.No wind59%30.15 "Hg1 mi
1:00 am59 °FHaze.No wind63%30.15 "Hg1 mi
11:30 pm
Sun, Jan 22
64 °FHaze.3 mph52%30.18 "Hg1 mi
11:00 pm64 °FHaze.3 mph52%30.18 "Hg1 mi
10:30 pm63 °FHaze.1 mph56%30.18 "Hg1 mi
10:00 pm63 °FHaze.2 mph59%30.18 "Hg2 mi
9:30 pm63 °FHaze.5 mph56%30.18 "Hg2 mi
9:00 pm63 °FHaze.5 mph56%30.15 "Hg2 mi
8:30 pm63 °FHaze.3 mph56%30.15 "Hg2 mi
8:00 pm64 °FHaze.6 mph49%30.15 "Hg2 mi
Weather by CustomWeather, © 2017

See weather overviewHow to use our weather pages